Aérodrome :
LOGIN :

S'inscrire | Disclaimer

   EN    FR    IT 

 










Légende :    VFR   VFR Marginal   IFR   IFR Intensif   IFR Très Intensif
Visi : 
Plafond : 
>= 8 km
>= 3000ft
5 à 8 km
1000 à 3000 ft
1500m à 5 km
500 à 1000 ft
800 à 1500m
200 à 500 ft
< 800m
< 200 ft
Symboles :   Orages  Brouillard  Fortes neiges  Fortes précipitations  Vent > 20 kt
SIGMETs :   Divers  Orages  Givrage  Turbulence  Onde Orograph.  Cendres Volcan.







- Altitude de l'aérodrome : 289 ft
- Voir les cartes d'approche


LFYR - Romorantin Pruniers

DERNIER METAR :
  • 201200Z AUTO 27005KT 240V310 9999 SCT024 BKN032 BKN039 17/11 Q1012 TEMPO 4000 SHRA BKN020TCU BKN035

METARs EXPIRÉS :
  • 201130Z AUTO 29006KT 250V330 9999 FEW020 SCT027 BKN036 16/11 Q1012 TEMPO 4000 SHRA BKN020TCU BKN035
  • 201100Z AUTO 30004KT 260V360 9999 BKN019 OVC025 15/11 Q1012 TEMPO 4000 SHRA BKN020TCU BKN035
  • 201030Z AUTO 28006KT 230V310 9000 BKN015 OVC025 15/11 Q1012 TEMPO 4000 SHRA BKN020TCU BKN035
  • 201000Z AUTO VRB03KT 6000 BKN010 OVC024 14/12 Q1012 TEMPO 4000 SHRA BKN020TCU BKN035
  • 200930Z AUTO VRB02KT 4200 BR BKN010 OVC019 13/11 Q1012 TEMPO 8000 NSW BKN020TCU BKN035

Prévision TAF périmée.
Pas de NOTAMs connus pour ce terrain.



MET'MAP, la Météo Aéronautique d'un coup d'oeil ! - Copyright ORBIFLY Décembre 2007 - Disclaimer

ORBIFLY MET'MAP TEAM :

Programmation & Développement : Alexandra Zaïnal
Conception & Développement : Baudouin d'Aumeries
Co-Programmation & Développement : Marc-Olivier Méhu
Soutien technique & logistique : Manuel Goepfert

Contact : metmap@orbifly.com




SOURCES & CREDITS :

   NOAA